Regional Weather Roundup
Issued by NWS Midland/Odessa, TX

Skip options and go directly to product.
Home | Oldest Version | Previous Version | Current Version | All | Graphics & Text | Save Text | Print | Product List | Glossary On

Skip product version selection by date and time.   
001
ASUS44 KMAF 300610
RWRMAF
MIDLAND AREA WEATHER ROUNDUP
NATIONAL WEATHER SERVICE MIDLAND TX
100 AM CDT THU JUL 30 2015

...IN SOUTHWEST TEXAS AND SOUTHEAST NEW MEXICO...

CITY           SKY/WX    TMP DP  RH WIND       PRES   REMARKS
ALPINE         MOCLDY    76  54  45 S7        30.26R
ANDREWS        MOCLDY    83  60  46 SE14G26   30.15S
ARTESIA        MOCLDY    82  59  44 SE10      30.15S
BIG SPRING     MOCLDY    83  55  37 E8        30.14R
CARLSBAD       PTCLDY    77  62  59 NE7       30.12R
DRYDEN           N/A     85  58  39 VRB5      30.07R
FORT STOCKTON  PTCLDY    80  52  37 SE10      30.11F
GUAD PASS      CLEAR     75  54  47 E13G23    30.29R
HOBBS          MOCLDY    77  64  65 NE7       30.19S
MARFA          PTCLDY    66  57  72 N5        30.25R
MIDLAND AIRPK  MOCLDY    83  66  55 CALM      30.13S
MIDLAND INTL   CLOUDY    83  64  52 N3        30.13S
ODESSA         MOCLDY    87  58  37 SE8       30.14S
PECOS          CLEAR     80  49  34 SE6       30.07S
PRESIDIO       FAIR      79  64  61 MISG      30.07S
SEMINOLE       HAZE      77  59  53 E6        30.17F VSB 1/4
SNYDER         CLEAR     82  64  56 E5        30.12S
WINK           PTCLDY    83  54  36 E5        30.09R
$$
...OTHER STATIONS IN TEXAS...

CITY           SKY/WX    TMP DP  RH WIND       PRES   REMARKS
ABILENE        CLEAR     83  62  49 SE10      30.09R
AMARILLO       CLEAR     72  69  90 NE9       30.24R
AUSTIN         PTCLDY    80  71  74 SW6       30.05S
BROWNSVILLE    CLEAR     80  76  87 SE7       30.04R
CORPUS CHRISTI MOCLDY    78  73  84 S5        30.04R
DALLAS FTW     CLEAR     86  65  49 SE3       30.04R
DEL RIO        CLEAR     86  62  44 E10       30.02R
EL PASO        MOCLDY    76  63  64 N5        30.18R
HOUSTON INT    PTCLDY    85  75  72 SW5       30.04R
LUBBOCK        PTCLDY    76  63  64 E5        30.18S
SAN ANGELO     CLEAR     81  58  45 S5        30.08R
SAN ANTONIO    CLEAR     82  70  66 S7        30.07R
WACO           CLEAR     81  69  67 S5        30.03S
WICHITA FALLS  NOT AVBL
$$
...OTHER LOCATIONS IN NEW MEXICO...

CITY           SKY/WX    TMP DP  RH WIND       PRES   REMARKS
ALAMAGORDO     MOCLDY    75  57  53 N10       30.21S
ALBUQUERQUE    CLOUDY    67  60  78 E26       30.36R
CANNON AFB     MOCLDY    74  66  74 E10       30.26S
CLOVIS         MOCLDY    72  64  78 E12       30.27S
HOLLOMAN AFB   NOT AVBL
ROSWELL        CLOUDY    80  62  54 NW9       30.17R
RUIDOSO          N/A    N/A N/A N/A MISG        N/A
SANTA FE       LGT RAIN  60  57  89 E7        30.46R
TRUTH OR CONSE LGT RAIN  68  64  87 SW9       30.31S
TUCUMCARI      CLOUDY    73  61  65 NW9       30.28R
$$

USA.gov is the U.S. government's official web portal to all federal, state and local government web resources and services.